Home   Weather   Birmingham   Past weeks

Flag for USA Past Weather in Birmingham, Alabama, USA — Yesterday and Last 2 Weeks

Now
63 °F

Passing clouds.


Feels Like: 63 °F
Forecast: 57 / 74 °F
Wind: 5 mph from Northeast

Location: Birmingham International Airport

Current Time: Feb 22, 2017 at 9:04:39 pm

Latest Report: Feb 22, 2017 at 7:53 pm


Visibility: 10 mi

Pressure: 29.86 "Hg

Humidity: 90%

Dew Point: 60 °F

Location of BirminghamLocation

Past Weather in Birmingham — Graph

°F

Birmingham Temperature Yesterday

Maximum temperature yesterday: 65 °F (at 12:53 am)
Minimum temperature yesterday: 59 °F (at 12:56 pm)
Average temperature yesterday: 60 °F

High & Low Weather Summary for the Past Weeks

 TemperatureHumidityPressure
High76 °F (Feb 20, 2:53 pm)100% (Feb 8, 2:14 am)30.43 "Hg (Feb 8, 2:14 am)
Low33 °F (Feb 16, 5:53 am)21% (Feb 14, 2:53 pm)29.59 "Hg (Feb 15, 2:53 am)
Average57 °F69%30.03 "Hg
* Reported Feb 7 7:53 pm — Feb 22 7:53 pm, Birmingham, Weather by CustomWeather, © 2017

Note: Actual official high and low records may vary slightly from our data, if they occured in-between our weather recording intervals... More about our weather records

Advertising

Birmingham Weather History for the Previous 24 Hours

Scroll right to see more
 ConditionsComfort  
Time TempWeatherWind HumidityBarometerVisibility
7:53 pm
Wed, Feb 22
63 °FPassing clouds.5 mph90%29.86 "Hg10 mi
6:53 pm65 °FPassing clouds.5 mph85%29.85 "Hg10 mi
5:53 pm67 °FPassing clouds.3 mph79%29.84 "Hg10 mi
4:53 pm70 °FPartly sunny.7 mph68%29.83 "Hg10 mi
3:53 pm70 °FBroken clouds.5 mph66%29.82 "Hg10 mi
2:53 pm69 °FBroken clouds.7 mph70%29.82 "Hg10 mi
2:18 pm68 °FMore clouds than sun.6 mph73%29.85 "Hg10 mi
1:53 pm69 °FMostly cloudy.7 mph70%29.83 "Hg10 mi
1:10 pm69 °FPassing clouds.7 mph68%29.84 "Hg10 mi
12:53 pm69 °FPartly sunny.8 mph68%29.83 "Hg10 mi
12:11 pm68 °FOvercast.9 mph73%29.86 "Hg10 mi
11:41 am68 °FPartly sunny.8 mph73%29.87 "Hg10 mi
10:53 am66 °FBroken clouds.7 mph78%29.87 "Hg10 mi
10:31 am64 °FBroken clouds.9 mph84%29.88 "Hg10 mi
9:53 am63 °FOvercast.6 mph87%29.88 "Hg10 mi
9:17 am63 °FOvercast.8 mph87%29.89 "Hg10 mi
8:53 am63 °FLow clouds.5 mph90%29.88 "Hg10 mi
8:12 am61 °FPartly sunny.No wind93%29.88 "Hg10 mi
8:03 am61 °FBroken clouds.5 mph93%29.88 "Hg10 mi
7:03 am60 °FMostly cloudy.No wind96%29.89 "Hg10 mi
6:53 am60 °FCloudy.3 mph96%29.87 "Hg10 mi
5:53 am60 °FOvercast.6 mph93%29.85 "Hg10 mi
5:34 am60 °FOvercast.5 mph93%29.86 "Hg10 mi
4:53 am60 °FLow clouds.No wind93%29.84 "Hg10 mi
3:53 am60 °FLow clouds.No wind93%29.85 "Hg10 mi
2:53 am60 °FLow clouds.5 mph93%29.84 "Hg10 mi
1:53 am59 °FLow clouds.No wind96%29.85 "Hg10 mi
12:53 am60 °FMostly cloudy.5 mph93%29.86 "Hg10 mi
11:53 pm
Tue, Feb 21
59 °FLight rain. Low clouds.6 mph96%29.86 "Hg10 mi
10:53 pm59 °FMostly cloudy.6 mph96%29.88 "Hg10 mi
9:53 pm59 °FLight rain. Low clouds.6 mph96%29.91 "Hg10 mi
Weather by CustomWeather, © 2017

See weather overviewHow to use our weather pages